User: anonymous   Login
Location: NJAA Observatory
(40.6819°N, 74.8979°W)
Time: 04:59:57
(UTC-04:00)
Language:

Iridium 84 - Orbit

View from above orbital plane
View from above orbital plane
View from above satellite
View from above satellite

Ground track
Ground track

The orbit data is extracted from the following two-line orbital elements,

1 25530U 98066D   15116.48169241  .00000181  00000-0  57426-4 0  9991
2 25530 086.3932 317.1806 0002077 090.6938 269.4496 14.34212839864819
Epoch (UTC): 26 April 2015 11:33:38
Eccentricity: 0.0002077
inclination: 86.3932°
perigee height: 776 km
apogee height: 779 km
right ascension of ascending node: 317.1806°
argument of perigee: 90.6938°
revolutions per day: 14.34212839
mean anomaly at epoch: 269.4496°
orbit number at epoch: 86481

The dashed part of the orbit path shows where the satellite is in the earth's shadow,  

DLR